Time,TemperatureF,DewpointF,PressureIn,WindDirection,WindDirectionDegrees,WindSpeedMPH,WindSpeedGustMPH,Humidity,HourlyPrecipIn,Conditions,Clouds,dailyrainin,SoftwareType,DateUTC
2012-02-15 00:01:00,40.3,38.7,30.03,NE,47,7.6,7.6,94,0.00,,,0.24,VWS V13.01,2012-02-15 06:01:00,
2012-02-15 00:06:00,40.3,38.7,30.03,NE,53,4.9,5.8,94,0.00,,,0.00,VWS V13.01,2012-02-15 06:06:00,
2012-02-15 00:11:00,40.3,38.7,30.03,NNE,28,5.8,6.3,94,0.00,,,0.00,VWS V13.01,2012-02-15 06:11:00,
2012-02-15 00:16:00,40.3,38.4,30.01,NE,35,3.6,4.9,93,0.00,,,0.00,VWS V13.01,2012-02-15 06:16:00,
2012-02-15 00:21:00,40.5,38.6,30.01,NNE,28,3.6,5.8,93,0.00,,,0.00,VWS V13.01,2012-02-15 06:21:00,
2012-02-15 00:26:00,40.5,38.6,30.01,NE,46,4.9,4.9,93,0.00,,,0.00,VWS V13.01,2012-02-15 06:26:00,
2012-02-15 00:31:00,40.5,38.9,30.03,NE,36,4.0,5.8,94,0.00,,,0.00,VWS V13.01,2012-02-15 06:31:00,
2012-02-15 00:36:00,40.5,38.9,30.03,ENE,61,3.6,4.9,94,0.00,,,0.00,VWS V13.01,2012-02-15 06:36:00,
2012-02-15 00:41:00,40.3,38.7,30.03,NE,42,6.3,6.3,94,0.00,,,0.00,VWS V13.01,2012-02-15 06:41:00,
2012-02-15 00:46:00,40.5,38.9,30.03,NNE,26,5.4,5.8,94,0.00,,,0.00,VWS V13.01,2012-02-15 06:46:00,
2012-02-15 00:51:00,40.5,38.9,30.03,NE,42,5.8,5.8,94,0.00,,,0.00,VWS V13.01,2012-02-15 06:51:00,
2012-02-15 00:56:00,40.5,39.1,30.03,NE,37,4.0,4.9,95,0.00,,,0.00,VWS V13.01,2012-02-15 06:56:00,
2012-02-15 01:01:00,40.5,39.1,30.03,NE,42,3.1,3.1,95,0.00,,,0.00,VWS V13.01,2012-02-15 07:01:00,
2012-02-15 01:05:00,40.5,39.1,30.03,NE,37,2.2,2.7,95,0.00,,,0.00,VWS V13.01,2012-02-15 07:05:00,
2012-02-15 01:10:00,40.5,39.4,30.03,ENE,60,2.7,4.9,96,0.00,,,0.00,VWS V13.01,2012-02-15 07:10:00,
2012-02-15 01:15:00,40.5,39.1,30.03,ENE,68,4.0,4.0,95,0.00,,,0.00,VWS V13.01,2012-02-15 07:15:00,
2012-02-15 01:20:00,40.6,39.3,30.03,ENE,63,2.7,5.4,95,0.00,,,0.00,VWS V13.01,2012-02-15 07:20:00,
2012-02-15 01:25:00,40.8,39.2,30.03,East,85,6.3,8.7,94,0.00,,,0.00,VWS V13.01,2012-02-15 07:25:00,
2012-02-15 01:30:00,40.8,39.0,30.01,ENE,71,6.3,6.3,93,0.00,,,0.00,VWS V13.01,2012-02-15 07:30:00,
2012-02-15 01:36:00,40.8,39.0,30.01,ENE,76,6.3,6.3,93,0.00,,,0.00,VWS V13.01,2012-02-15 07:36:00,
2012-02-15 01:41:00,40.8,39.0,30.01,NE,44,5.8,10.1,93,0.00,,,0.00,VWS V13.01,2012-02-15 07:41:00,
2012-02-15 01:46:00,40.8,39.0,30.01,NE,51,3.6,6.3,93,0.00,,,0.00,VWS V13.01,2012-02-15 07:46:00,
2012-02-15 01:51:00,40.8,39.0,30.01,ENE,78,5.4,6.3,93,0.00,,,0.00,VWS V13.01,2012-02-15 07:51:00,
2012-02-15 01:56:00,40.8,39.0,30.01,NE,44,5.4,5.4,93,0.00,,,0.00,VWS V13.01,2012-02-15 07:56:00,
2012-02-15 02:01:00,40.8,39.0,30.01,NE,53,4.0,6.3,93,0.00,,,0.00,VWS V13.01,2012-02-15 08:01:00,
2012-02-15 02:06:00,40.8,39.2,30.01,ENE,63,7.6,7.6,94,0.00,,,0.00,VWS V13.01,2012-02-15 08:06:00,
2012-02-15 02:11:00,40.6,39.0,30.01,NE,34,5.8,8.7,94,0.00,,,0.00,VWS V13.01,2012-02-15 08:11:00,
2012-02-15 02:16:00,40.6,39.0,30.01,North,358,3.6,5.4,94,0.00,,,0.00,VWS V13.01,2012-02-15 08:16:00,
2012-02-15 02:21:00,40.5,39.1,30.01,NE,53,5.4,7.6,95,0.00,,,0.00,VWS V13.01,2012-02-15 08:21:00,
2012-02-15 02:26:00,40.5,39.4,30.01,ENE,74,2.7,3.1,96,0.00,,,0.00,VWS V13.01,2012-02-15 08:26:00,
2012-02-15 02:31:00,40.5,39.7,30.01,NE,46,4.0,4.0,97,0.00,,,0.00,VWS V13.01,2012-02-15 08:31:00,
2012-02-15 02:36:00,40.5,39.7,30.01,ENE,70,4.9,5.4,97,0.00,,,0.00,VWS V13.01,2012-02-15 08:36:00,
2012-02-15 02:37:00,40.3,39.5,30.01,NE,45,2.7,3.1,97,0.00,,,0.00,VWS V13.01,2012-02-15 08:37:00,
2012-02-15 02:42:00,40.3,39.5,30.01,NE,38,4.0,4.9,97,0.00,,,0.00,VWS V13.01,2012-02-15 08:42:00,
2012-02-15 02:47:00,40.5,39.7,29.98,NE,51,3.6,7.6,97,0.00,,,0.00,VWS V13.01,2012-02-15 08:47:00,
2012-02-15 02:52:00,40.5,39.7,29.98,ENE,61,2.7,2.7,97,0.00,,,0.00,VWS V13.01,2012-02-15 08:52:00,
2012-02-15 02:57:00,40.5,39.7,29.98,NE,47,2.7,4.0,97,0.00,,,0.00,VWS V13.01,2012-02-15 08:57:00,
2012-02-15 03:02:00,40.5,39.7,29.98,NE,42,5.4,5.4,97,0.00,,,0.00,VWS V13.01,2012-02-15 09:02:00,
2012-02-15 03:07:00,40.5,39.7,29.98,ENE,63,3.6,3.6,97,0.00,,,0.00,VWS V13.01,2012-02-15 09:07:00,
2012-02-15 03:12:00,40.5,39.7,29.98,NNE,32,4.5,6.3,97,0.00,,,0.00,VWS V13.01,2012-02-15 09:12:00,
2012-02-15 03:17:00,40.5,39.7,29.98,NE,37,5.4,5.4,97,0.00,,,0.00,VWS V13.01,2012-02-15 09:17:00,
2012-02-15 03:22:00,40.6,39.9,29.98,NE,35,6.3,6.3,97,0.00,,,0.00,VWS V13.01,2012-02-15 09:22:00,
2012-02-15 03:27:00,40.6,40.1,29.98,ENE,62,4.0,4.0,98,0.00,,,0.00,VWS V13.01,2012-02-15 09:27:00,
2012-02-15 03:33:00,40.6,40.1,29.98,NE,45,3.6,3.6,98,0.00,,,0.00,VWS V13.01,2012-02-15 09:33:00,
2012-02-15 03:38:00,40.6,39.9,29.98,NNE,29,4.0,5.4,97,0.00,,,0.00,VWS V13.01,2012-02-15 09:38:00,
2012-02-15 03:42:00,40.8,40.0,29.98,NNE,24,4.9,4.9,97,0.00,,,0.00,VWS V13.01,2012-02-15 09:42:00,
2012-02-15 03:48:00,41.0,40.0,30.01,NNE,25,3.1,3.1,96,0.00,,,0.00,VWS V13.01,2012-02-15 09:48:00,
2012-02-15 03:52:00,41.0,40.0,30.01,North,360,2.7,5.4,96,0.00,,,0.00,VWS V13.01,2012-02-15 09:52:00,
2012-02-15 03:57:00,41.0,39.7,30.01,NE,43,5.4,6.3,95,0.00,,,0.00,VWS V13.01,2012-02-15 09:57:00,
2012-02-15 04:02:00,41.0,39.7,30.01,NNE,19,4.0,5.4,95,0.00,,,0.00,VWS V13.01,2012-02-15 10:02:00,
2012-02-15 04:07:00,41.2,40.1,30.01,NNE,25,5.4,5.4,96,0.00,,,0.00,VWS V13.01,2012-02-15 10:07:00,
2012-02-15 04:12:00,41.0,39.7,30.01,NNE,23,7.6,7.6,95,0.00,,,0.00,VWS V13.01,2012-02-15 10:12:00,
2012-02-15 04:17:00,41.2,39.9,30.01,NE,35,5.4,5.4,95,0.00,,,0.00,VWS V13.01,2012-02-15 10:17:00,
2012-02-15 04:22:00,41.2,39.6,30.01,NE,53,5.4,6.3,94,0.00,,,0.00,VWS V13.01,2012-02-15 10:22:00,
2012-02-15 04:27:00,41.2,39.6,30.01,NE,35,5.8,6.3,94,0.00,,,0.00,VWS V13.01,2012-02-15 10:27:00,
2012-02-15 04:32:00,41.2,39.9,29.98,NE,40,5.4,5.4,95,0.00,,,0.00,VWS V13.01,2012-02-15 10:32:00,
2012-02-15 04:37:00,41.2,40.1,29.98,NE,55,4.0,5.4,96,0.00,,,0.00,VWS V13.01,2012-02-15 10:37:00,
2012-02-15 04:42:00,41.2,40.1,29.98,NE,46,4.9,4.9,96,0.00,,,0.00,VWS V13.01,2012-02-15 10:42:00,
2012-02-15 04:47:00,41.4,40.3,29.98,NE,37,3.6,3.6,96,0.00,,,0.00,VWS V13.01,2012-02-15 10:47:00,
2012-02-15 04:52:00,41.5,40.0,29.98,NE,43,4.0,6.3,94,0.00,,,0.00,VWS V13.01,2012-02-15 10:52:00,
2012-02-15 04:57:00,41.5,40.0,29.98,NNE,29,5.4,5.4,94,0.00,,,0.00,VWS V13.01,2012-02-15 10:57:00,
2012-02-15 05:02:00,41.5,40.0,30.01,NE,42,5.4,5.4,94,0.00,,,0.00,VWS V13.01,2012-02-15 11:02:00,
2012-02-15 05:07:00,41.7,40.1,30.01,NE,56,3.6,3.6,94,0.00,,,0.00,VWS V13.01,2012-02-15 11:07:00,
2012-02-15 05:12:00,41.7,40.1,30.01,NE,35,3.1,4.0,94,0.00,,,0.00,VWS V13.01,2012-02-15 11:12:00,
2012-02-15 05:17:00,41.7,40.1,29.98,NE,41,3.6,3.6,94,0.00,,,0.00,VWS V13.01,2012-02-15 11:17:00,
2012-02-15 05:22:00,41.7,40.1,29.98,ENE,61,3.6,4.0,94,0.00,,,0.00,VWS V13.01,2012-02-15 11:22:00,
2012-02-15 05:27:00,41.7,40.1,29.98,NNE,31,4.0,4.9,94,0.00,,,0.00,VWS V13.01,2012-02-15 11:27:00,
2012-02-15 05:32:00,41.7,39.8,30.01,NE,48,5.8,5.8,93,0.00,,,0.00,VWS V13.01,2012-02-15 11:32:00,
2012-02-15 05:37:00,41.7,39.8,30.01,NE,49,5.8,6.7,93,0.00,,,0.00,VWS V13.01,2012-02-15 11:37:00,
2012-02-15 05:42:00,41.7,39.8,30.01,ENE,66,3.6,5.4,93,0.00,,,0.00,VWS V13.01,2012-02-15 11:42:00,
2012-02-15 05:47:00,41.7,40.1,29.98,ENE,67,5.4,5.4,94,0.00,,,0.00,VWS V13.01,2012-02-15 11:47:00,
2012-02-15 05:52:00,41.5,39.7,29.98,NE,41,5.8,7.6,93,0.00,,,0.00,VWS V13.01,2012-02-15 11:52:00,
2012-02-15 05:57:00,41.5,39.7,29.98,NE,47,4.9,4.9,93,0.00,,,0.00,VWS V13.01,2012-02-15 11:57:00,
2012-02-15 06:02:00,41.5,40.0,29.98,ENE,73,4.5,6.3,94,0.00,,,0.00,VWS V13.01,2012-02-15 12:02:00,
2012-02-15 06:07:00,41.4,39.8,29.98,ENE,74,5.4,5.4,94,0.00,,,0.00,VWS V13.01,2012-02-15 12:07:00,
2012-02-15 06:12:00,41.4,40.0,29.98,East,79,6.3,8.3,95,0.00,,,0.00,VWS V13.01,2012-02-15 12:12:00,
2012-02-15 06:17:00,41.4,40.0,29.98,NE,49,4.0,5.4,95,0.00,,,0.00,VWS V13.01,2012-02-15 12:17:00,
2012-02-15 06:22:00,41.4,40.0,29.98,ENE,57,5.8,6.7,95,0.00,,,0.00,VWS V13.01,2012-02-15 12:22:00,
2012-02-15 06:27:00,41.4,40.0,29.98,ENE,67,8.1,8.7,95,0.00,,,0.00,VWS V13.01,2012-02-15 12:27:00,
2012-02-15 06:32:00,41.5,40.2,29.98,ENE,71,5.4,8.7,95,0.00,,,0.00,VWS V13.01,2012-02-15 12:32:00,
2012-02-15 06:37:00,41.5,40.5,29.98,East,84,5.8,5.8,96,0.00,,,0.00,VWS V13.01,2012-02-15 12:37:00,
2012-02-15 06:42:00,41.5,40.5,29.98,ENE,63,4.0,4.0,96,0.00,,,0.00,VWS V13.01,2012-02-15 12:42:00,
2012-02-15 06:47:00,41.5,40.8,29.98,ENE,73,4.9,7.6,97,0.00,,,0.00,VWS V13.01,2012-02-15 12:47:00,
2012-02-15 06:52:00,41.5,40.8,29.98,NE,55,4.0,4.9,97,0.00,,,0.00,VWS V13.01,2012-02-15 12:52:00,
2012-02-15 06:57:00,41.7,40.9,29.98,ENE,62,5.8,6.3,97,0.00,,,0.00,VWS V13.01,2012-02-15 12:57:00,
2012-02-15 07:02:00,41.7,40.9,29.98,ENE,71,5.4,6.3,97,0.00,,,0.00,VWS V13.01,2012-02-15 13:02:00,
2012-02-15 07:07:00,41.7,40.9,29.98,ENE,68,5.4,5.4,97,0.00,,,0.00,VWS V13.01,2012-02-15 13:07:00,
2012-02-15 07:12:00,41.7,40.9,29.98,NE,41,5.4,5.4,97,0.00,,,0.00,VWS V13.01,2012-02-15 13:12:00,
2012-02-15 07:17:00,41.7,40.9,29.98,NE,46,5.8,7.6,97,0.00,,,0.00,VWS V13.01,2012-02-15 13:17:00,
2012-02-15 07:22:00,41.7,40.9,29.98,NNE,30,5.8,8.3,97,0.00,,,0.00,VWS V13.01,2012-02-15 13:22:00,
2012-02-15 07:27:00,41.9,41.1,29.98,NE,44,4.0,5.8,97,0.00,,,0.00,VWS V13.01,2012-02-15 13:27:00,
2012-02-15 07:32:00,41.9,41.1,29.98,NE,42,5.8,8.1,97,0.00,,,0.00,VWS V13.01,2012-02-15 13:32:00,
2012-02-15 07:37:00,41.9,41.1,29.98,ENE,62,3.6,8.1,97,0.00,,,0.00,VWS V13.01,2012-02-15 13:37:00,
2012-02-15 07:42:00,41.9,41.1,29.98,ENE,68,5.4,6.3,97,0.00,,,0.00,VWS V13.01,2012-02-15 13:42:00,
2012-02-15 07:47:00,41.9,41.1,29.98,NE,54,6.3,6.3,97,0.00,,,0.00,VWS V13.01,2012-02-15 13:47:00,
2012-02-15 07:52:00,42.1,41.3,29.98,ENE,63,5.4,8.3,97,0.00,,,0.00,VWS V13.01,2012-02-15 13:52:00,
2012-02-15 07:57:00,42.1,41.6,29.98,East,79,5.8,6.3,98,0.00,,,0.00,VWS V13.01,2012-02-15 13:57:00,
2012-02-15 08:02:00,42.1,41.3,30.01,NE,51,5.4,5.8,97,0.00,,,0.00,VWS V13.01,2012-02-15 14:02:00,
2012-02-15 08:07:00,42.1,41.3,30.01,ENE,64,4.0,4.5,97,0.00,,,0.00,VWS V13.01,2012-02-15 14:07:00,
2012-02-15 08:12:00,42.1,41.3,30.01,NE,40,4.0,4.9,97,0.00,,,0.00,VWS V13.01,2012-02-15 14:12:00,
2012-02-15 08:17:00,42.1,41.6,30.01,East,81,5.8,7.6,98,0.00,,,0.00,VWS V13.01,2012-02-15 14:17:00,
2012-02-15 08:22:00,42.1,42.1,30.01,NE,54,5.4,5.4,100,0.00,,,0.00,VWS V13.01,2012-02-15 14:22:00,
2012-02-15 08:27:00,42.1,42.1,30.01,NNE,26,3.6,4.0,100,0.00,,,0.00,VWS V13.01,2012-02-15 14:27:00,
2012-02-15 08:32:00,41.9,41.9,30.01,NE,45,7.2,7.2,100,0.00,,,0.00,VWS V13.01,2012-02-15 14:32:00,
2012-02-15 08:37:00,41.9,41.9,30.01,NNE,20,5.4,5.4,100,0.00,,,0.04,VWS V13.01,2012-02-15 14:37:00,
2012-02-15 08:42:00,41.7,41.7,30.01,NE,48,4.0,4.0,100,0.04,,,0.04,VWS V13.01,2012-02-15 14:42:00,
2012-02-15 08:47:00,41.9,41.9,30.01,ENE,63,5.4,5.4,100,0.04,,,0.04,VWS V13.01,2012-02-15 14:47:00,
2012-02-15 08:52:00,42.1,42.1,30.01,NE,41,5.4,5.4,100,0.04,,,0.04,VWS V13.01,2012-02-15 14:52:00,
2012-02-15 08:57:00,42.1,42.1,30.01,ENE,62,4.9,5.4,100,0.04,,,0.04,VWS V13.01,2012-02-15 14:57:00,
2012-02-15 09:02:00,42.1,42.1,30.01,NE,51,3.6,5.4,100,0.04,,,0.04,VWS V13.01,2012-02-15 15:02:00,
2012-02-15 09:07:00,42.1,42.1,30.01,NE,52,8.1,8.1,100,0.04,,,0.04,VWS V13.01,2012-02-15 15:07:00,
2012-02-15 09:12:00,42.3,42.3,30.01,NNE,25,3.6,5.8,100,0.04,,,0.04,VWS V13.01,2012-02-15 15:12:00,
2012-02-15 09:17:00,42.3,42.3,30.01,NE,49,8.3,8.3,100,0.04,,,0.04,VWS V13.01,2012-02-15 15:17:00,
2012-02-15 09:22:00,42.3,42.3,30.01,ENE,71,4.9,5.8,100,0.04,,,0.04,VWS V13.01,2012-02-15 15:22:00,
2012-02-15 09:27:00,42.3,42.3,30.01,NE,50,5.8,6.3,100,0.04,,,0.04,VWS V13.01,2012-02-15 15:27:00,
2012-02-15 09:32:00,42.3,42.3,29.98,NE,37,5.4,5.4,100,0.04,,,0.04,VWS V13.01,2012-02-15 15:32:00,
2012-02-15 09:37:00,42.4,42.4,29.98,NE,45,3.6,4.9,100,0.04,,,0.04,VWS V13.01,2012-02-15 15:37:00,
2012-02-15 09:42:00,42.4,42.4,29.98,NNE,23,5.8,5.8,100,0.00,,,0.04,VWS V13.01,2012-02-15 15:42:00,
2012-02-15 09:47:00,42.4,42.4,30.01,NE,43,6.3,6.3,100,0.00,,,0.04,VWS V13.01,2012-02-15 15:47:00,
2012-02-15 09:52:00,42.6,42.6,30.01,NE,51,3.1,3.6,100,0.00,,,0.04,VWS V13.01,2012-02-15 15:52:00,
2012-02-15 09:57:00,42.8,42.8,30.01,NE,41,5.4,8.1,100,0.00,,,0.04,VWS V13.01,2012-02-15 15:57:00,
2012-02-15 10:02:00,43.0,43.0,30.01,NE,54,5.8,5.8,100,0.00,,,0.04,VWS V13.01,2012-02-15 16:02:00,
2012-02-15 10:07:00,43.0,43.0,30.01,NE,38,5.8,5.8,100,0.00,,,0.04,VWS V13.01,2012-02-15 16:07:00,
2012-02-15 10:12:00,43.3,43.3,30.01,NE,47,5.4,5.4,100,0.00,,,0.04,VWS V13.01,2012-02-15 16:12:00,
2012-02-15 10:17:00,43.3,43.3,30.01,NE,47,6.3,6.3,100,0.00,,,0.04,VWS V13.01,2012-02-15 16:17:00,
2012-02-15 10:22:00,43.5,43.5,30.01,ENE,57,5.8,5.8,100,0.00,,,0.04,VWS V13.01,2012-02-15 16:22:00,
2012-02-15 10:27:00,43.7,43.7,30.01,NE,53,4.9,4.9,100,0.00,,,0.04,VWS V13.01,2012-02-15 16:27:00,
2012-02-15 10:32:00,43.9,43.9,30.01,NE,55,5.4,5.4,100,0.00,,,0.04,VWS V13.01,2012-02-15 16:32:00,
2012-02-15 10:37:00,44.1,44.1,30.01,NE,34,3.1,3.6,100,0.00,,,0.04,VWS V13.01,2012-02-15 16:37:00,
2012-02-15 10:42:00,44.1,44.1,30.01,NE,37,5.4,5.4,100,0.00,,,0.04,VWS V13.01,2012-02-15 16:42:00,
2012-02-15 10:47:00,44.2,44.2,30.01,NE,51,3.6,3.6,100,0.00,,,0.04,VWS V13.01,2012-02-15 16:47:00,
2012-02-15 10:52:00,44.4,44.2,30.01,ENE,61,4.5,5.8,99,0.00,,,0.04,VWS V13.01,2012-02-15 16:52:00,
2012-02-15 10:57:00,44.6,44.1,30.01,NNE,33,4.0,4.9,98,0.00,,,0.04,VWS V13.01,2012-02-15 16:57:00,
2012-02-15 11:02:00,44.6,44.3,30.01,NE,43,3.1,4.0,99,0.00,,,0.04,VWS V13.01,2012-02-15 17:02:00,
2012-02-15 11:07:00,44.8,44.5,30.01,ENE,62,4.9,4.9,99,0.00,,,0.04,VWS V13.01,2012-02-15 17:07:00,
2012-02-15 11:12:00,44.8,44.2,30.01,NE,42,4.9,4.9,98,0.00,,,0.04,VWS V13.01,2012-02-15 17:12:00,
2012-02-15 11:17:00,44.8,44.2,29.98,NE,53,4.0,6.3,98,0.00,,,0.04,VWS V13.01,2012-02-15 17:17:00,
2012-02-15 11:22:00,45.1,44.6,29.98,NE,49,3.6,8.1,98,0.00,,,0.04,VWS V13.01,2012-02-15 17:22:00,
2012-02-15 11:27:00,45.3,44.5,29.98,NE,46,5.4,6.3,97,0.00,,,0.04,VWS V13.01,2012-02-15 17:27:00,
2012-02-15 11:32:00,45.3,44.2,29.98,NE,53,3.1,3.6,96,0.00,,,0.04,VWS V13.01,2012-02-15 17:32:00,
2012-02-15 11:37:00,45.3,43.7,29.98,ENE,64,5.4,6.3,94,0.00,,,0.04,VWS V13.01,2012-02-15 17:37:00,
2012-02-15 11:42:00,45.3,44.0,29.98,NE,41,7.2,7.2,95,0.00,,,0.04,VWS V13.01,2012-02-15 17:42:00,
2012-02-15 11:47:00,45.3,44.0,29.98,ENE,61,5.4,5.8,95,0.00,,,0.04,VWS V13.01,2012-02-15 17:47:00,
2012-02-15 11:52:00,45.3,44.0,29.98,NE,44,6.3,6.3,95,0.00,,,0.04,VWS V13.01,2012-02-15 17:52:00,
2012-02-15 11:57:00,45.5,44.4,29.98,ENE,57,4.0,4.0,96,0.00,,,0.04,VWS V13.01,2012-02-15 17:57:00,
2012-02-15 12:02:00,45.7,44.3,29.98,NE,54,4.0,4.0,95,0.00,,,0.04,VWS V13.01,2012-02-15 18:02:00,
2012-02-15 12:07:00,45.9,44.2,29.98,NE,40,6.3,6.3,94,0.00,,,0.04,VWS V13.01,2012-02-15 18:07:00,
2012-02-15 12:12:00,46.0,44.4,29.98,NE,51,6.3,6.3,94,0.00,,,0.04,VWS V13.01,2012-02-15 18:12:00,
2012-02-15 12:17:00,46.0,44.1,29.95,NE,41,4.0,4.9,93,0.00,,,0.04,VWS V13.01,2012-02-15 18:17:00,
2012-02-15 12:22:00,46.2,44.6,29.95,NE,38,4.0,4.0,94,0.00,,,0.04,VWS V13.01,2012-02-15 18:22:00,
2012-02-15 12:27:00,46.2,44.3,29.95,ENE,62,4.0,5.8,93,0.00,,,0.04,VWS V13.01,2012-02-15 18:27:00,
2012-02-15 12:32:00,46.2,44.3,29.95,ENE,62,5.4,5.8,93,0.00,,,0.04,VWS V13.01,2012-02-15 18:32:00,
2012-02-15 12:37:00,46.2,44.6,29.95,NNE,28,4.0,5.4,94,0.00,,,0.04,VWS V13.01,2012-02-15 18:37:00,
2012-02-15 12:42:00,46.4,44.8,29.95,NNE,33,4.0,4.9,94,0.00,,,0.04,VWS V13.01,2012-02-15 18:42:00,
2012-02-15 12:47:00,46.6,44.7,29.95,NNE,31,5.4,6.3,93,0.00,,,0.04,VWS V13.01,2012-02-15 18:47:00,
2012-02-15 12:52:00,46.8,45.1,29.95,NNE,32,5.4,5.4,94,0.00,,,0.04,VWS V13.01,2012-02-15 18:52:00,
2012-02-15 12:57:00,46.8,44.8,29.95,NNE,29,5.8,5.8,93,0.00,,,0.04,VWS V13.01,2012-02-15 18:57:00,
2012-02-15 13:02:00,46.9,45.0,29.92,NE,41,9.6,9.6,93,0.00,,,0.04,VWS V13.01,2012-02-15 19:02:00,
2012-02-15 13:07:00,47.1,45.5,29.92,ENE,59,6.3,6.3,94,0.00,,,0.04,VWS V13.01,2012-02-15 19:07:00,
2012-02-15 13:12:00,47.3,45.4,29.92,NNE,18,5.8,6.3,93,0.00,,,0.04,VWS V13.01,2012-02-15 19:12:00,
2012-02-15 13:17:00,47.3,45.1,29.92,ENE,57,4.0,5.4,92,0.00,,,0.04,VWS V13.01,2012-02-15 19:17:00,
2012-02-15 13:22:00,47.3,44.8,29.92,NNE,32,5.4,8.3,91,0.00,,,0.04,VWS V13.01,2012-02-15 19:22:00,
2012-02-15 13:27:00,47.3,45.1,29.92,NE,47,5.4,6.3,92,0.00,,,0.04,VWS V13.01,2012-02-15 19:27:00,
2012-02-15 13:32:00,47.3,45.4,29.92,East,80,3.6,4.0,93,0.00,,,0.04,VWS V13.01,2012-02-15 19:32:00,
2012-02-15 13:37:00,47.3,45.4,29.92,NE,56,2.2,3.1,93,0.00,,,0.04,VWS V13.01,2012-02-15 19:37:00,
2012-02-15 13:42:00,47.3,45.4,29.92,East,81,4.9,5.4,93,0.00,,,0.04,VWS V13.01,2012-02-15 19:42:00,
2012-02-15 13:47:00,47.3,45.1,29.92,ENE,57,5.4,6.3,92,0.00,,,0.04,VWS V13.01,2012-02-15 19:47:00,
2012-02-15 13:48:00,47.3,45.1,29.92,NE,54,7.6,7.6,92,0.00,,,0.04,VWS V13.01,2012-02-15 19:48:00,
2012-02-15 13:53:00,47.1,45.2,29.92,East,96,6.3,6.3,93,0.00,,,0.04,VWS V13.01,2012-02-15 19:53:00,
2012-02-15 13:58:00,47.1,45.2,29.92,NE,56,4.0,6.3,93,0.00,,,0.04,VWS V13.01,2012-02-15 19:58:00,
2012-02-15 14:03:00,47.1,45.5,29.92,ENE,74,2.2,3.1,94,0.00,,,0.04,VWS V13.01,2012-02-15 20:03:00,
2012-02-15 14:08:00,47.1,46.0,29.92,NE,45,3.1,4.9,96,0.00,,,0.04,VWS V13.01,2012-02-15 20:08:00,
2012-02-15 14:13:00,47.1,46.0,29.92,ESE,105,2.7,5.8,96,0.00,,,0.04,VWS V13.01,2012-02-15 20:13:00,
2012-02-15 14:18:00,47.1,46.3,29.89,NE,49,4.0,4.0,97,0.00,,,0.04,VWS V13.01,2012-02-15 20:18:00,
2012-02-15 14:23:00,46.9,45.9,29.89,NE,55,5.4,5.4,96,0.00,,,0.04,VWS V13.01,2012-02-15 20:23:00,
2012-02-15 14:28:00,46.9,46.1,29.89,North,7,3.6,3.6,97,0.00,,,0.04,VWS V13.01,2012-02-15 20:28:00,
2012-02-15 14:33:00,46.9,46.4,29.92,NNW,348,0.0,0.0,98,0.00,,,0.04,VWS V13.01,2012-02-15 20:33:00,
2012-02-15 14:38:00,46.9,46.4,29.92,NNE,26,2.7,5.4,98,0.00,,,0.04,VWS V13.01,2012-02-15 20:38:00,
2012-02-15 14:43:00,46.9,46.9,29.92,NE,39,3.6,5.4,100,0.00,,,0.04,VWS V13.01,2012-02-15 20:43:00,
2012-02-15 14:48:00,46.9,46.9,29.92,NNE,27,2.7,3.6,100,0.00,,,0.04,VWS V13.01,2012-02-15 20:48:00,
2012-02-15 14:53:00,46.8,46.8,29.92,NNW,328,2.7,3.1,100,0.00,,,0.04,VWS V13.01,2012-02-15 20:53:00,
2012-02-15 14:58:00,46.6,46.6,29.92,NE,34,3.6,3.6,100,0.00,,,0.04,VWS V13.01,2012-02-15 20:58:00,
2012-02-15 15:02:00,46.6,46.6,29.92,NE,55,2.2,2.7,100,0.00,,,0.04,VWS V13.01,2012-02-15 21:02:00,
2012-02-15 15:07:00,46.6,46.6,29.92,NE,54,0.0,0.0,100,0.00,,,0.04,VWS V13.01,2012-02-15 21:07:00,
2012-02-15 15:12:00,46.6,46.6,29.92,NE,37,3.6,4.0,100,0.00,,,0.04,VWS V13.01,2012-02-15 21:12:00,
2012-02-15 15:17:00,46.6,46.6,29.92,NNE,23,4.9,4.9,100,0.00,,,0.04,VWS V13.01,2012-02-15 21:17:00,
2012-02-15 15:22:00,46.8,46.8,29.92,NE,47,3.6,3.6,100,0.00,,,0.04,VWS V13.01,2012-02-15 21:22:00,
2012-02-15 15:27:00,46.9,46.9,29.92,NE,43,3.1,3.1,100,0.00,,,0.04,VWS V13.01,2012-02-15 21:27:00,
2012-02-15 15:32:00,46.8,46.8,29.89,NE,37,2.2,3.1,100,0.00,,,0.04,VWS V13.01,2012-02-15 21:32:00,
2012-02-15 15:37:00,46.8,46.8,29.89,NE,40,3.6,4.0,100,0.00,,,0.04,VWS V13.01,2012-02-15 21:37:00,
2012-02-15 15:42:00,46.6,46.6,29.89,NE,42,0.0,2.2,100,0.00,,,0.04,VWS V13.01,2012-02-15 21:42:00,
2012-02-15 15:47:00,46.8,46.8,29.92,NE,35,3.1,4.0,100,0.00,,,0.04,VWS V13.01,2012-02-15 21:47:00,
2012-02-15 15:52:00,46.8,46.8,29.92,NE,39,0.0,0.0,100,0.00,,,0.04,VWS V13.01,2012-02-15 21:52:00,
2012-02-15 15:57:00,46.8,46.8,29.92,NE,45,2.7,2.7,100,0.00,,,0.04,VWS V13.01,2012-02-15 21:57:00,
2012-02-15 16:02:00,46.8,46.8,29.92,NE,45,0.0,0.0,100,0.00,,,0.04,VWS V13.01,2012-02-15 22:02:00,
2012-02-15 16:07:00,46.9,46.9,29.92,NE,45,2.2,2.7,100,0.00,,,0.04,VWS V13.01,2012-02-15 22:07:00,
2012-02-15 16:12:00,46.9,46.9,29.92,NE,42,3.6,3.6,100,0.00,,,0.04,VWS V13.01,2012-02-15 22:12:00,
2012-02-15 16:17:00,46.9,46.9,29.92,ENE,67,4.0,5.4,100,0.00,,,0.04,VWS V13.01,2012-02-15 22:17:00,
2012-02-15 16:22:00,46.9,46.9,29.92,NE,49,2.7,2.7,100,0.00,,,0.04,VWS V13.01,2012-02-15 22:22:00,
2012-02-15 16:27:00,46.9,46.9,29.92,ENE,65,3.1,3.6,100,0.00,,,0.04,VWS V13.01,2012-02-15 22:27:00,
2012-02-15 16:33:00,46.9,46.9,29.89,NNE,33,3.6,4.0,100,0.00,,,0.04,VWS V13.01,2012-02-15 22:33:00,
2012-02-15 16:38:00,46.9,46.9,29.89,NE,46,4.0,4.0,100,0.00,,,0.04,VWS V13.01,2012-02-15 22:38:00,
2012-02-15 16:43:00,46.9,46.9,29.89,NE,43,2.2,2.2,100,0.00,,,0.04,VWS V13.01,2012-02-15 22:43:00,
2012-02-15 16:48:00,46.9,46.9,29.92,NE,37,3.1,3.1,100,0.00,,,0.04,VWS V13.01,2012-02-15 22:48:00,
2012-02-15 16:53:00,46.9,46.9,29.92,ENE,58,4.9,4.9,100,0.00,,,0.04,VWS V13.01,2012-02-15 22:53:00,
2012-02-15 16:58:00,46.9,46.9,29.92,NE,42,2.2,2.2,100,0.00,,,0.04,VWS V13.01,2012-02-15 22:58:00,
2012-02-15 17:03:00,46.9,46.9,29.92,East,83,3.1,3.1,100,0.00,,,0.04,VWS V13.01,2012-02-15 23:03:00,
2012-02-15 17:08:00,46.9,46.9,29.92,NE,41,3.1,3.1,100,0.00,,,0.04,VWS V13.01,2012-02-15 23:08:00,
2012-02-15 17:13:00,46.9,46.9,29.92,ENE,67,2.7,3.6,100,0.00,,,0.04,VWS V13.01,2012-02-15 23:13:00,
2012-02-15 17:18:00,46.9,46.9,29.92,NE,47,2.7,2.7,100,0.00,,,0.04,VWS V13.01,2012-02-15 23:18:00,
2012-02-15 17:23:00,46.9,46.9,29.92,ENE,75,4.0,4.0,100,0.00,,,0.04,VWS V13.01,2012-02-15 23:23:00,
2012-02-15 17:28:00,46.9,46.9,29.92,East,79,5.4,5.4,100,0.00,,,0.04,VWS V13.01,2012-02-15 23:28:00,
2012-02-15 17:33:00,46.9,46.9,29.92,ENE,67,2.7,3.1,100,0.00,,,0.04,VWS V13.01,2012-02-15 23:33:00,
2012-02-15 17:38:00,46.9,46.9,29.92,NE,54,2.7,3.1,100,0.00,,,0.04,VWS V13.01,2012-02-15 23:38:00,
2012-02-15 17:43:00,46.9,46.9,29.92,NE,40,2.7,2.7,100,0.00,,,0.04,VWS V13.01,2012-02-15 23:43:00,
2012-02-15 17:48:00,46.9,46.9,29.92,NE,55,0.0,0.0,100,0.00,,,0.04,VWS V13.01,2012-02-15 23:48:00,
2012-02-15 17:53:00,46.9,46.9,29.92,ENE,62,0.0,0.0,100,0.00,,,0.04,VWS V13.01,2012-02-15 23:53:00,
2012-02-15 17:58:00,46.9,46.9,29.92,ENE,62,0.0,0.0,100,0.00,,,0.04,VWS V13.01,2012-02-15 23:58:00,
2012-02-15 18:03:00,46.9,46.9,29.92,NE,43,2.2,2.7,100,0.00,,,0.04,VWS V13.01,2012-02-16 00:03:00,
2012-02-15 18:08:00,46.9,46.9,29.92,NE,41,2.7,3.6,100,0.00,,,0.04,VWS V13.01,2012-02-16 00:08:00,
2012-02-15 18:13:00,46.9,46.9,29.92,NE,44,2.7,3.1,100,0.00,,,0.04,VWS V13.01,2012-02-16 00:13:00,
2012-02-15 18:18:00,46.9,46.9,29.92,NNE,19,2.7,3.6,100,0.00,,,0.04,VWS V13.01,2012-02-16 00:18:00,
2012-02-15 18:23:00,46.9,46.9,29.92,NNE,14,4.0,4.0,100,0.00,,,0.04,VWS V13.01,2012-02-16 00:23:00,
2012-02-15 18:28:00,46.9,46.9,29.92,NNW,346,3.1,3.1,100,0.00,,,0.04,VWS V13.01,2012-02-16 00:28:00,
2012-02-15 18:33:00,46.9,46.9,29.92,NNW,335,0.0,0.0,100,0.00,,,0.04,VWS V13.01,2012-02-16 00:33:00,
2012-02-15 18:38:00,46.9,46.9,29.92,NE,43,3.1,3.6,100,0.00,,,0.04,VWS V13.01,2012-02-16 00:38:00,
2012-02-15 18:43:00,46.9,46.9,29.92,NNE,13,2.2,2.2,100,0.00,,,0.04,VWS V13.01,2012-02-16 00:43:00,
2012-02-15 18:48:00,46.9,46.9,29.95,NNE,17,3.1,3.6,100,0.00,,,0.04,VWS V13.01,2012-02-16 00:48:00,
2012-02-15 18:53:00,46.9,46.9,29.95,NE,34,4.5,4.5,100,0.00,,,0.04,VWS V13.01,2012-02-16 00:53:00,
2012-02-15 18:58:00,46.9,46.9,29.95,NNE,28,0.0,0.0,100,0.00,,,0.04,VWS V13.01,2012-02-16 00:58:00,
2012-02-15 19:03:00,46.9,46.9,29.92,NNW,328,2.2,2.7,100,0.00,,,0.04,VWS V13.01,2012-02-16 01:03:00,
2012-02-15 19:08:00,46.9,46.9,29.92,NNW,328,0.0,0.0,100,0.00,,,0.04,VWS V13.01,2012-02-16 01:08:00,
2012-02-15 19:13:00,46.9,46.9,29.92,NNW,328,0.0,0.0,100,0.00,,,0.04,VWS V13.01,2012-02-16 01:13:00,
2012-02-15 19:18:00,46.9,46.9,29.95,NNW,328,0.0,0.0,100,0.00,,,0.04,VWS V13.01,2012-02-16 01:18:00,
2012-02-15 19:23:00,46.9,46.9,29.95,NNE,30,2.7,3.1,100,0.00,,,0.04,VWS V13.01,2012-02-16 01:23:00,
2012-02-15 19:28:00,46.9,46.9,29.95,NNE,30,0.0,0.0,100,0.00,,,0.04,VWS V13.01,2012-02-16 01:28:00,
2012-02-15 19:33:00,46.9,46.9,29.95,NNE,29,0.0,0.0,100,0.00,,,0.04,VWS V13.01,2012-02-16 01:33:00,
2012-02-15 19:38:00,46.9,46.9,29.95,NNE,29,0.0,0.0,100,0.00,,,0.04,VWS V13.01,2012-02-16 01:38:00,
2012-02-15 19:43:00,46.9,46.9,29.95,NNE,29,2.7,3.1,100,0.00,,,0.04,VWS V13.01,2012-02-16 01:43:00,
2012-02-15 19:48:00,47.1,47.1,29.95,NNE,30,0.0,2.7,100,0.00,,,0.04,VWS V13.01,2012-02-16 01:48:00,
2012-02-15 19:53:00,46.9,46.9,29.95,NNE,30,0.0,0.0,100,0.00,,,0.04,VWS V13.01,2012-02-16 01:53:00,
2012-02-15 19:58:00,46.9,46.9,29.95,NNE,30,0.0,0.0,100,0.00,,,0.04,VWS V13.01,2012-02-16 01:58:00,
2012-02-15 20:03:00,47.1,47.1,29.95,NNE,30,0.0,0.0,100,0.00,,,0.04,VWS V13.01,2012-02-16 02:03:00,
2012-02-15 20:08:00,47.1,47.1,29.95,NNE,30,0.0,0.0,100,0.00,,,0.04,VWS V13.01,2012-02-16 02:08:00,
2012-02-15 20:13:00,47.1,47.1,29.95,NNE,30,0.0,0.0,100,0.00,,,0.04,VWS V13.01,2012-02-16 02:13:00,
2012-02-15 20:17:00,47.1,47.1,29.95,NNE,30,0.0,0.0,100,0.00,,,0.04,VWS V13.01,2012-02-16 02:17:00,
2012-02-15 20:23:00,47.1,47.1,29.95,NNE,30,0.0,0.0,100,0.00,,,0.04,VWS V13.01,2012-02-16 02:23:00,
2012-02-15 20:28:00,47.1,47.1,29.95,NNE,30,0.0,0.0,100,0.00,,,0.04,VWS V13.01,2012-02-16 02:28:00,
2012-02-15 20:33:00,47.1,47.1,29.95,NNE,30,0.0,0.0,100,0.00,,,0.04,VWS V13.01,2012-02-16 02:33:00,
2012-02-15 20:38:00,47.1,47.1,29.95,NNE,30,0.0,0.0,100,0.00,,,0.04,VWS V13.01,2012-02-16 02:38:00,
2012-02-15 20:43:00,47.1,47.1,29.95,NNE,30,0.0,0.0,100,0.00,,,0.04,VWS V13.01,2012-02-16 02:43:00,
2012-02-15 20:48:00,47.1,47.1,29.95,NNE,30,0.0,0.0,100,0.00,,,0.04,VWS V13.01,2012-02-16 02:48:00,
2012-02-15 20:53:00,47.1,47.1,29.95,NNE,30,0.0,0.0,100,0.00,,,0.04,VWS V13.01,2012-02-16 02:53:00,
2012-02-15 20:58:00,47.1,47.1,29.95,NNE,30,0.0,0.0,100,0.00,,,0.04,VWS V13.01,2012-02-16 02:58:00,
2012-02-15 21:03:00,47.1,47.1,29.98,NNE,30,0.0,0.0,100,0.00,,,0.04,VWS V13.01,2012-02-16 03:03:00,
2012-02-15 21:08:00,46.9,46.9,29.98,NNE,30,0.0,0.0,100,0.00,,,0.04,VWS V13.01,2012-02-16 03:08:00,
2012-02-15 21:13:00,46.9,46.9,29.98,NNE,30,0.0,0.0,100,0.00,,,0.04,VWS V13.01,2012-02-16 03:13:00,
2012-02-15 21:18:00,46.9,46.9,29.95,NNE,30,0.0,0.0,100,0.00,,,0.04,VWS V13.01,2012-02-16 03:18:00,
2012-02-15 21:23:00,46.9,46.9,29.95,NNE,30,0.0,0.0,100,0.00,,,0.04,VWS V13.01,2012-02-16 03:23:00,
2012-02-15 21:28:00,46.9,46.9,29.95,NNE,30,0.0,0.0,100,0.00,,,0.04,VWS V13.01,2012-02-16 03:28:00,
2012-02-15 21:33:00,47.1,47.1,29.98,NNE,30,0.0,0.0,100,0.00,,,0.04,VWS V13.01,2012-02-16 03:33:00,
2012-02-15 21:38:00,47.1,47.1,29.98,NNE,30,0.0,0.0,100,0.00,,,0.04,VWS V13.01,2012-02-16 03:38:00,
2012-02-15 21:43:00,47.1,47.1,29.98,NNE,30,0.0,0.0,100,0.00,,,0.04,VWS V13.01,2012-02-16 03:43:00,
2012-02-15 21:48:00,47.1,47.1,29.98,NNE,30,0.0,0.0,100,0.00,,,0.04,VWS V13.01,2012-02-16 03:48:00,
2012-02-15 21:53:00,47.1,47.1,29.98,NNE,30,0.0,0.0,100,0.00,,,0.04,VWS V13.01,2012-02-16 03:53:00,
2012-02-15 21:58:00,47.1,47.1,29.98,NNE,30,0.0,0.0,100,0.00,,,0.04,VWS V13.01,2012-02-16 03:58:00,
2012-02-15 22:03:00,47.1,47.1,29.98,NNE,30,0.0,0.0,100,0.00,,,0.04,VWS V13.01,2012-02-16 04:03:00,
2012-02-15 22:08:00,47.1,47.1,29.98,NNE,30,0.0,0.0,100,0.00,,,0.04,VWS V13.01,2012-02-16 04:08:00,
2012-02-15 22:13:00,47.1,47.1,29.98,NNE,30,0.0,0.0,100,0.00,,,0.04,VWS V13.01,2012-02-16 04:13:00,
2012-02-15 22:18:00,47.1,47.1,29.98,NNE,30,0.0,0.0,100,0.00,,,0.04,VWS V13.01,2012-02-16 04:18:00,
2012-02-15 22:23:00,47.1,47.1,29.98,NNE,30,0.0,0.0,100,0.00,,,0.04,VWS V13.01,2012-02-16 04:23:00,
2012-02-15 22:28:00,47.1,47.1,29.98,NNE,30,0.0,0.0,100,0.00,,,0.04,VWS V13.01,2012-02-16 04:28:00,
2012-02-15 22:33:00,47.1,47.1,30.01,NNE,30,0.0,0.0,100,0.00,,,0.04,VWS V13.01,2012-02-16 04:33:00,
2012-02-15 22:38:00,47.1,47.1,30.01,NNE,30,0.0,0.0,100,0.00,,,0.04,VWS V13.01,2012-02-16 04:38:00,
2012-02-15 22:43:00,47.1,47.1,30.01,NNE,30,0.0,0.0,100,0.00,,,0.04,VWS V13.01,2012-02-16 04:43:00,
2012-02-15 22:48:00,47.1,47.1,30.01,NNE,30,0.0,0.0,100,0.00,,,0.04,VWS V13.01,2012-02-16 04:48:00,
2012-02-15 22:53:00,47.1,47.1,30.01,NNE,30,0.0,0.0,100,0.00,,,0.04,VWS V13.01,2012-02-16 04:53:00,
2012-02-15 22:58:00,47.1,47.1,30.01,NNE,30,0.0,0.0,100,0.00,,,0.04,VWS V13.01,2012-02-16 04:58:00,
2012-02-15 23:00:00,47.1,47.1,30.01,NNE,30,0.0,0.0,100,0.00,,,0.04,VWS V13.01,2012-02-16 05:00:00,
2012-02-15 23:05:00,47.1,47.1,30.01,NW,323,0.0,0.0,100,0.00,,,0.04,VWS V13.01,2012-02-16 05:05:00,
2012-02-15 23:10:00,47.1,47.1,30.01,NW,323,0.0,0.0,100,0.00,,,0.04,VWS V13.01,2012-02-16 05:10:00,
2012-02-15 23:15:00,47.1,47.1,30.01,NW,323,0.0,0.0,100,0.00,,,0.04,VWS V13.01,2012-02-16 05:15:00,
2012-02-15 23:20:00,47.3,47.3,30.01,NW,305,3.1,3.1,100,0.00,,,0.04,VWS V13.01,2012-02-16 05:20:00,
2012-02-15 23:25:00,47.7,47.7,30.01,NW,306,0.0,0.0,100,0.00,,,0.04,VWS V13.01,2012-02-16 05:25:00,
2012-02-15 23:30:00,47.8,47.8,30.03,NW,306,0.0,0.0,100,0.00,,,0.04,VWS V13.01,2012-02-16 05:30:00,
2012-02-15 23:35:00,47.7,47.7,30.03,NW,306,0.0,0.0,100,0.00,,,0.04,VWS V13.01,2012-02-16 05:35:00,
2012-02-15 23:40:00,47.5,47.5,30.03,NW,306,0.0,0.0,100,0.00,,,0.04,VWS V13.01,2012-02-16 05:40:00,
2012-02-15 23:45:00,47.3,47.3,30.03,NW,306,2.7,2.7,100,0.00,,,0.04,VWS V13.01,2012-02-16 05:45:00,
2012-02-15 23:50:00,47.1,47.1,30.03,SSE,161,4.0,4.0,100,0.00,,,0.04,VWS V13.01,2012-02-16 05:50:00,
2012-02-15 23:55:00,46.9,46.9,30.03,SSE,168,0.0,0.0,100,0.00,,,0.04,VWS V13.01,2012-02-16 05:55:00,